This is the latest recevied weather packets stored in our database for station/object KV4OP. If no packets are shown the sender has not sent any weather packets the latest 10 day(s).
| Time | Temp. | Humidity | Pressure | Rain* | Wind** | Luminosity | Snow |
|---|---|---|---|---|---|---|---|
| 1777573535 | 32.78° C | 48% | 1010.9 hPa | 0 mm | - | - | - |
| 1777573233 | 32.78° C | 47% | 1011.1 hPa | 0 mm | - | - | - |
| 1777572934 | 32.78° C | 46% | 1011 hPa | 0 mm | - | - | - |
| 1777572631 | 32.78° C | 47% | 1011.1 hPa | 0 mm | - | - | - |
| 1777572333 | 32.78° C | 48% | 1011.2 hPa | 0 mm | - | - | - |
| 1777572032 | 32.78° C | 48% | 1011.3 hPa | 0 mm | - | - | - |
| 1777571729 | 32.22° C | 48% | 1011.4 hPa | 0 mm | - | - | - |
| 1777570229 | 32.22° C | 48% | 1012.1 hPa | 0 mm | - | - | - |
| 1777569927 | 32.22° C | 50% | 1012 hPa | 0 mm | - | - | - |
| 1777569628 | 31.67° C | 48% | 1011.9 hPa | 0 mm | - | - | - |
| 1777569026 | 31.67° C | 49% | 1011.9 hPa | 0 mm | - | - | - |
| 1777568723 | 31.11° C | 51% | 1012 hPa | 0 mm | - | - | - |
| 1777566920 | 30° C | 55% | 1012.1 hPa | 0 mm | - | - | - |
| 1777566620 | 30° C | 55% | 1012.2 hPa | 0 mm | - | - | - |
| 1777566017 | 29.44° C | 56% | 1012.2 hPa | 0 mm | - | - | - |
| 1777565718 | 30° C | 57% | 1012.4 hPa | 0 mm | - | - | - |
| 1777565121 | 29.44° C | 58% | 1012.6 hPa | 0 mm | - | - | - |
| 1777564213 | 29.44° C | 61% | 1012.7 hPa | 0 mm | - | - | - |
| 1777563612 | 28.89° C | 61% | 1012.7 hPa | 0 mm | - | - | - |
| 1777563312 | 28.33° C | 64% | 1012.8 hPa | 0 mm | - | - | - |
| 1777563011 | 28.89° C | 63% | 1012.8 hPa | 0 mm | - | - | - |
| 1777562710 | 28.33° C | 64% | 1012.9 hPa | 0 mm | - | - | - |
| 1777562411 | 27.78° C | 66% | 1012.9 hPa | 0 mm | - | - | - |
| 1777560906 | 27.78° C | 66% | 1012.7 hPa | 0 mm | - | - | - |
| 1777559159 | 25.56° C | 73% | 1012.6 hPa | 0 mm | - | - | - |
* Rain latest hour (hover to see other rain measurements)
** Current wind speed in m/s (hover to see current wind gust speed)